This demonstration page uses our WeatherBlox Daily Observations layout. Learn more.

Left ArrowRight Arrow

39.95238, -75.16362

Hourly Observations for June 8, 2022

Temp ( °F °C ) Dew Point ( °F °C ) Humidity (%) Winds ( mph kmh ) Pressure ( in mb ) Visibility ( mi km ) Precip ( " mm )
12:50 am 00:50 Cloudy 72 22 66 19 83 83 S 8 13 29.91 1013 10 16 0.00 0.00
12:54 am 00:54 Cloudy 72 22.2 66 18.9 82 82 S 8 13 29.90 1013 10 16 0.00 0.00
1:10 am 01:10 Cloudy 72 22.2 66 18.9 82 82 SSW 8 13 29.90 1012 10 16 0.00 0.00
1:54 am 01:54 Cloudy 72 22.2 67 19.4 84 84 SSW 7 11 29.88 1012 10 16 0.00 0.00
2:52 am 02:52 Mostly Cloudy 73 23 68 20 83 83 SSW 9 15 29.88 1012 10 16 0.00 0.00
2:54 am 02:54 Mostly Cloudy 72 22.2 67 19.4 84 84 SSW 8 13 29.88 1012 10 16 0.00 0.00
3:01 am 03:01 Mostly Cloudy 72 22.2 67 19.4 84 84 SSW 8 13 29.88 1012 10 16 0.00 0.00
3:22 am 03:22 Cloudy 73 22.8 67 19.4 81 81 SSW 8 13 29.88 1012 10 16 0.00 0.00
3:54 am 03:54 Cloudy 72 22.2 67 19.4 84 84 SSW 8 13 29.87 1012 10 16 0.00 0.00
4:19 am 04:19 Partly Cloudy 72 22.2 68 20 87 87 SSW 7 11 29.87 1011 10 16 0.00 0.00
4:54 am 04:54 Partly Cloudy 72 22.2 68 20 87 87 SSW 7 11 29.87 1011 10 16 0.00 0.00
5:38 am 05:38 Mostly Cloudy 72 22.2 68 20 87 87 WSW 8 13 29.88 1012 10 16 0.00 0.00
5:54 am 05:54 Mostly Cloudy 72 22.2 68 20 87 87 SW 8 13 29.88 1012 10 16 0.00 0.00
6:54 am 06:54 Cloudy 72 22.2 68 20 87 87 WSW 8 13 29.90 1012 10 16 0.00 0.00
7:54 am 07:54 Cloudy 73 22.8 69 20.6 87 87 W 10 17 29.91 1013 10 16 0.00 0.00
8:32 am 08:32 Mostly Cloudy 74 23.3 66 18.9 76 76 W 7 11 29.92 1013 10 16 0.00 0.00
8:47 am 08:47 Mostly Cloudy 75 23.9 67 19.4 76 76 W 7 11 29.91 1013 10 16 0.00 0.00
8:54 am 08:54 Mostly Cloudy 75 23.9 66 18.9 74 74 NW 6 9 29.91 1013 10 16 0.00 0.00
9:54 am 09:54 Mostly Cloudy 76 24.4 65 18.3 69 69 WNW 6 9 29.91 1013 10 16 0.00 0.00
10:54 am 10:54 Mostly Cloudy 79 26.1 64 17.8 60 60 WNW 6 9 29.91 1013 10 16 0.00 0.00
11:54 am 11:54 Mostly Cloudy 81 27.2 64 17.8 57 57 W 9 15 29.91 1013 10 16 0.00 0.00
12:54 pm 12:54 Partly Cloudy 82 27.8 63 17.2 53 53 NW 9 15 29.90 1013 10 16 0.00 0.00
1:54 pm 13:54 Partly Cloudy 84 28.9 62 16.7 48 48 WNW 13 20 29.89 1012 10 16 0.00 0.00
2:54 pm 14:54 Partly Cloudy 85 29.4 62 16.7 46 46 W 13 20 29.88 1012 10 16 0.00 0.00
3:54 pm 15:54 Partly Cloudy 85 29.4 62 16.7 46 46 WSW 9 15 29.86 1011 10 16 0.00 0.00
4:54 pm 16:54 Partly Cloudy 85 29.4 62 16.7 46 46 Calm 29.83 1010 10 16 0.00 0.00
5:54 pm 17:54 Partly Cloudy 85 29.4 62 16.7 46 46 VRB 5 7 29.83 1010 10 16 0.00 0.00
6:54 pm 18:54 Partly Cloudy 85 29.4 62 16.7 46 46 Calm 29.83 1010 10 16 0.00 0.00
7:54 pm 19:54 Mostly Cloudy 81 27.2 65 18.3 58 58 E 3 6 29.81 1010 10 16 0.00 0.00
8:54 pm 20:54 Mostly Cloudy 80 26.7 66 18.9 62 62 SE 3 6 29.80 1009 10 16 0.00 0.00
9:54 pm 21:54 Cloudy with Light Rain 79 26.1 68 20 69 69 SSE 7 11 29.80 1009 10 16 0.00 0.00
10:43 pm 22:43 Cloudy with Light Rain 78 25.6 68 20 71 71 SSE 7 11 29.81 1009 7 11 0.00 0.00
10:48 pm 22:48 Cloudy with Light Rain 77 25 70 21 79 79 S 5 7 29.81 1009 5 8 0.01 0.25
10:54 pm 22:54 Cloudy with Light Rain 78 25.6 69 20.6 74 74 S 6 9 29.81 1009 5 8 0.02 0.51
11:02 pm 23:02 Cloudy with Thunderstorms 77 25 70 21.1 79 79 VRB 3 6 29.81 1009 7 11 0.02 0.51
11:20 pm 23:20 Cloudy with Thunderstorms 77 25 70 21.1 79 79 W 3 6 29.80 1009 5 8 0.04 1.02
11:30 pm 23:30 Cloudy with Thunderstorms 77 25 70 21.1 79 79 W 6 9 29.80 1009 3 5 0.06 1.52
11:39 pm 23:39 Cloudy with Thunderstorms 76 24.4 71 21.7 85 85 SW 17 28 29.82 1010 2 2 0.08 2.03
11:44 pm 23:44 Cloudy with Thunderstorms 73 22.8 70 21.1 90 90 WSW 15 24 29.80 1009 1 2 0.28 7.11
11:48 pm 23:48 Cloudy with Thunderstorms 73 23 70 21 89 89 SW 6 9 29.80 1009 3 5 0.34 8.64
11:54 pm 23:54 Cloudy with Thunderstorms 73 22.8 70 21.1 90 90 SW 7 11 29.78 1009 4 6 0.36 9.14

Powered by AerisWeather